This is the latest recevied weather packets stored in our database for station/object JH7UAX-10. If no packets are shown the sender has not sent any weather packets the latest 10 day(s).
| Time | Temp. | Humidity | Pressure | Rain* | Wind** | Luminosity | Snow |
|---|---|---|---|---|---|---|---|
| 1778286605 | 10° C | 91% | 1016.4 hPa | 0.25 mm | - | - | - |
| 1778286179 | 10° C | 91% | 1016.3 hPa | 0.25 mm | - | - | - |
| 1778285279 | 10.56° C | 91% | 1015.8 hPa | 0.25 mm | - | - | - |
| 1778284379 | 10° C | 92% | 1015.4 hPa | 0 mm | - | - | - |
| 1778283478 | 10° C | 91% | 1015.2 hPa | 0 mm | - | - | - |
| 1778282579 | 10.56° C | 87% | 1015 hPa | 0 mm | - | - | - |
| 1778282105 | 11.11° C | 86% | 1014.9 hPa | 0 mm | - | - | - |
| 1778281679 | 11.11° C | 86% | 1014.9 hPa | 0 mm | - | - | - |
| 1778281207 | 11.11° C | 87% | 1014.7 hPa | 0 mm | - | - | - |
| 1778280779 | 11.11° C | 87% | 1014.7 hPa | 0 mm | - | - | - |
| 1778279878 | 10.56° C | 88% | 1014.4 hPa | 0 mm | - | - | - |
| 1778278978 | 11.11° C | 88% | 1014.4 hPa | 0 mm | - | - | - |
| 1778278080 | 11.11° C | 89% | 1014.1 hPa | 0 mm | - | - | - |
| 1778277179 | 10.56° C | 89% | 1014 hPa | 0 mm | - | - | - |
| 1778276279 | 10.56° C | 89% | 1014 hPa | 0 mm | - | - | - |
| 1778275379 | 11.11° C | 85% | 1013.9 hPa | 0 mm | - | - | - |
| 1778274479 | 11.67° C | 83% | 1013.6 hPa | 0 mm | - | - | - |
| 1778273579 | 11.11° C | 85% | 1013.8 hPa | 0 mm | - | - | - |
| 1778273106 | 11.11° C | 87% | 1013.8 hPa | 0 mm | - | - | - |
| 1778272678 | 11.11° C | 88% | 1013.8 hPa | 0 mm | - | - | - |
| 1778271778 | 10.56° C | 89% | 1013.8 hPa | 0 mm | - | - | - |
| 1778270880 | 10.56° C | 90% | 1013.7 hPa | 0 mm | - | - | - |
| 1778269980 | 10.56° C | 90% | 1013.7 hPa | 0 mm | - | - | - |
| 1778269505 | 10.56° C | 90% | 1013.7 hPa | 0 mm | - | - | - |
| 1778269079 | 10.56° C | 90% | 1013.8 hPa | 0 mm | - | - | - |
* Rain latest hour (hover to see other rain measurements)
** Current wind speed in m/s (hover to see current wind gust speed)